EW5982 Weather Reports


time (UTC)temp
C
wind
direction
speed
KPH
gust
KPH
rain 1hr
cm
rain 24hr
cm
rain mn
cm
humidity
%
barometer
mb
20260504100526 11 163 4.8 8.0 0.00 0.00 0.00 57 996.9
20260504081532 10 188 3.2 8.0 0.00 0.00 0.00 56 999.0
20260504081014 10 182 3.2 8.0 0.00 0.00 0.00 56 999.1
20260504080517 10 159 3.2 6.4 0.00 0.00 0.00 56 999.1
20260504050525 12 188 3.2 9.7 0.00 0.00 0.00 50 1002.4
20260504045522 12 196 3.2 6.4 0.00 0.00 0.00 50 1002.6
20260504045021 12 187 3.2 6.4 0.00 0.00 0.00 50 1002.7
20260504044523 12 181 3.2 6.4 0.00 0.00 0.00 50 1002.7
20260504044024 12 179 3.2 6.4 0.00 0.00 0.00 51 1002.8
20260504043526 12 186 4.8 6.4 0.00 0.00 0.00 50 1002.9
20260504043030 12 179 3.2 6.4 0.00 0.00 0.00 51 1003.0
20260504042532 12 173 3.2 8.0 0.00 0.00 0.00 50 1003.0
20260504042030 12 179 3.2 4.8 0.00 0.00 0.00 50 1003.1
20260504041530 12 220 1.6 4.8 0.00 0.00 0.00 51 1003.3
20260504041032 12 235 1.6 3.2 0.00 0.00 0.00 52 1003.3
20260504040514 12 235 1.6 1.6 0.00 0.00 0.00 52 1003.5
20260504040033 12 235 0.0 1.6 0.00 0.00 0.00 50 1003.5
20260504035535 12 235 0.0 1.6 0.00 0.00 0.00 51 1003.6
20260504035032 12 235 0.0 3.2 0.00 0.00 0.00 49 1003.8
20260504034533 12 235 1.6 3.2 0.00 0.00 0.00 49 1003.9
20260504034032 13 235 0.0 1.6 0.00 0.00 0.00 48 1003.9
20260504033514 13 235 0.0 1.6 0.00 0.00 0.00 48 1004.0
20260504033014 13 235 0.0 1.6 0.00 0.00 0.00 48 1004.1
20260504032516 13 235 0.0 3.2 0.00 0.00 0.00 48 1004.2
20260504032018 13 235 1.6 3.2 0.00 0.00 0.00 49 1004.2
20260504031521 13 235 0.0 3.2 0.00 0.00 0.00 45 1004.3
20260504031021 13 235 1.6 3.2 0.00 0.00 0.00 45 1004.3
20260504030520 13 235 0.0 3.2 0.00 0.00 0.00 44 1004.4
20260504030019 13 273 0.0 1.6 0.00 0.00 0.00 46 1004.4
20260504025521 13 273 0.0 1.6 0.00 0.00 0.00 45 1004.4
20260504025020 14 273 0.0 1.6 0.00 0.00 0.00 44 1004.4
20260504024528 14 273 0.0 1.6 0.00 0.00 0.00 44 1004.4
20260504024030 14 273 0.0 0.0 0.00 0.00 0.00 43 1004.5
20260504023515 15 273 0.0 0.0 0.00 0.00 0.00 43 1004.5
20260504023022 15 273 0.0 0.0 0.00 0.00 0.00 42 1004.5
20260504022520 15 273 0.0 0.0 0.00 0.00 0.00 41 1004.6
20260504022027 15 273 0.0 0.0 0.00 0.00 0.00 41 1004.6
20260504021533 15 273 0.0 0.0 0.00 0.00 0.00 41 1004.6
20260504021015 16 273 0.0 0.0 0.00 0.00 0.00 40 1004.6
20260504020516 16 273 0.0 0.0 0.00 0.00 0.00 39 1004.6
20260504020022 16 273 0.0 0.0 0.00 0.00 0.00 38 1004.6
20260504015522 16 273 0.0 0.0 0.00 0.00 0.00 38 1004.6
20260504015027 17 273 0.0 1.6 0.00 0.00 0.00 37 1004.6
20260504014529 17 273 0.0 1.6 0.00 0.00 0.00 37 1004.6
20260504014032 17 273 0.0 1.6 0.00 0.00 0.00 36 1004.7
20260504013531 17 273 0.0 1.6 0.00 0.00 0.00 35 1004.8
20260504013033 18 289 0.0 3.2 0.00 0.00 0.00 33 1004.8
20260504012531 18 288 0.0 3.2 0.00 0.00 0.00 32 1004.9
20260504012031 18 288 0.0 3.2 0.00 0.00 0.00 32 1004.9
20260504011531 18 309 0.0 11.3 0.00 0.00 0.00 32 1004.9
20260504011030 18 309 0.0 11.3 0.00 0.00 0.00 31 1004.9
20260504010531 19 288 0.0 4.8 0.00 0.00 0.00 30 1005.0
20260504010031 19 310 3.2 6.4 0.00 0.00 0.00 30 1005.0
20260504005531 19 296 3.2 6.4 0.00 0.00 0.00 29 1005.0
20260504005033 19 327 1.6 8.0 0.00 0.00 0.00 28 1005.0
20260504004536 19 303 4.8 9.7 0.00 0.00 0.00 27 1005.0
20260504004044 19 319 4.8 12.9 0.00 0.00 0.00 29 1005.1
20260504003544 20 280 8.0 12.9 0.00 0.00 0.00 27 1005.2
20260504003054 20 322 3.2 14.5 0.00 0.00 0.00 28 1005.1
20260504002537 20 277 6.4 14.5 0.00 0.00 0.00 27 1005.1
20260504002037 20 283 4.8 12.9 0.00 0.00 0.00 28 1005.2
20260504001542 20 296 4.8 14.5 0.00 0.00 0.00 28 1005.2
20260504001048 20 269 4.8 14.5 0.00 0.00 0.00 28 1005.2
20260504000556 20 225 3.2 12.9 0.00 0.00 0.00 27 1005.2
20260504000037 20 328 6.4 12.9 0.00 0.00 0.00 27 1005.2
20260503235558 20 302 4.8 14.5 0.00 0.00 0.00 27 1005.3
20260503235039 20 318 8.0 17.7 0.00 0.00 0.00 27 1005.3
20260503234547 21 213 3.2 16.1 0.00 0.00 0.00 29 1005.3
20260503234028 21 340 4.8 16.1 0.00 0.00 0.00 27 1005.3
20260503233530 21 340 6.4 17.7 0.00 0.00 0.00 25 1005.2
20260503233031 21 321 4.8 17.7 0.00 0.00 0.00 26 1005.3
20260503232531 21 328 4.8 14.5 0.00 0.00 0.00 27 1005.3
20260503232031 21 319 6.4 17.7 0.00 0.00 0.00 27 1005.4
20260503231531 21 293 9.7 17.7 0.00 0.00 0.00 27 1005.6
20260503231032 20 250 8.0 14.5 0.00 0.00 0.00 27 1005.6
20260503230533 21 351 6.4 14.5 0.00 0.00 0.00 27 1005.6
20260503230036 21 335 6.4 14.5 0.00 0.00 0.00 29 1005.7
20260503225536 21 330 4.8 14.5 0.00 0.00 0.00 28 1005.6
20260503225037 21 298 6.4 14.5 0.00 0.00 0.00 27 1005.7
20260503224540 21 303 4.8 16.1 0.00 0.00 0.00 27 1005.7
20260503224041 20 303 6.4 17.7 0.00 0.00 0.00 27 1005.7
20260503223547 21 311 8.0 22.5 0.00 0.00 0.00 27 1005.8
20260503223054 20 9 4.8 17.7 0.00 0.00 0.00 27 1005.8
20260503222536 20 330 11.3 17.7 0.00 0.00 0.00 28 1005.9
20260503222042 20 17 9.7 17.7 0.00 0.00 0.00 27 1005.8
20260503221548 20 331 11.3 17.7 0.00 0.00 0.00 25 1005.8
20260503221054 20 348 9.7 20.9 0.00 0.00 0.00 27 1005.8
20260503220535 20 298 6.4 20.9 0.00 0.00 0.00 27 1006.0
20260503220101 21 310 9.7 20.9 0.00 0.00 0.00 28 1006.0
20260503215539 21 278 9.7 20.9 0.00 0.00 0.00 27 1005.9
20260503215047 20 290 6.4 20.9 0.00 0.00 0.00 26 1005.9
20260503214555 21 322 8.0 16.1 0.00 0.00 0.00 28 1006.0
20260503214015 21 324 4.8 14.5 0.00 0.00 0.00 30 1006.0
20260503213516 21 12 8.0 19.3 0.00 0.00 0.00 29 1006.1
20260503213018 20 301 8.0 19.3 0.00 0.00 0.00 28 1006.0
20260503212517 20 291 11.3 17.7 0.00 0.00 0.00 29 1006.1
20260503212017 21 306 8.0 19.3 0.00 0.00 0.00 29 1006.1
20260503211518 21 319 9.7 19.3 0.00 0.00 0.00 29 1006.2
20260503211020 20 315 6.4 17.7 0.00 0.00 0.00 29 1006.2
20260503210521 20 26 8.0 19.3 0.00 0.00 0.00 29 1006.3
20260503210019 20 311 11.3 19.3 0.00 0.00 0.00 29 1006.3
20260503205518 21 313 6.4 17.7 0.00 0.00 0.00 31 1006.3
20260503205017 20 348 6.4 20.9 0.00 0.00 0.00 30 1006.4
20260503204519 20 251 9.7 17.7 0.00 0.00 0.00 31 1006.4
20260503204021 20 315 11.3 22.5 0.00 0.00 0.00 31 1006.5
20260503203523 20 336 12.9 22.5 0.00 0.00 0.00 30 1006.5
20260503203024 20 309 8.0 24.1 0.00 0.00 0.00 30 1006.6
20260503202524 20 317 11.3 24.1 0.00 0.00 0.00 28 1006.6
20260503202023 20 293 9.7 19.3 0.00 0.00 0.00 31 1006.8
20260503201523 20 275 11.3 25.7 0.00 0.00 0.00 31 1006.7
20260503201024 20 331 9.7 19.3 0.00 0.00 0.00 32 1006.7
20260503200526 20 360 8.0 17.7 0.00 0.00 0.00 33 1006.8
20260503200025 20 17 11.3 20.9 0.00 0.00 0.00 31 1006.9
20260503195527 20 329 12.9 22.5 0.00 0.00 0.00 32 1007.1
20260503195030 20 340 14.5 24.1 0.00 0.00 0.00 31 1007.1
20260503194533 20 315 12.9 25.7 0.00 0.00 0.00 31 1007.2
20260503194031 20 298 11.3 24.1 0.00 0.00 0.00 31 1007.3
20260503193533 20 335 9.7 22.5 0.00 0.00 0.00 30 1007.3
20260503193014 20 355 9.7 22.5 0.00 0.00 0.00 31 1007.4
20260503192515 20 290 11.3 20.9 0.00 0.00 0.00 31 1007.3
20260503192017 20 320 14.5 20.9 0.00 0.00 0.00 31 1007.3
20260503191516 20 284 6.4 24.1 0.00 0.00 0.00 32 1007.3
20260503191017 20 344 11.3 24.1 0.00 0.00 0.00 32 1007.4
20260503190519 20 288 11.3 20.9 0.00 0.00 0.00 34 1007.4
20260503190020 20 331 9.7 20.9 0.00 0.00 0.00 31 1007.3
20260503185519 20 26 8.0 20.9 0.00 0.00 0.00 30 1007.3
20260503185021 20 309 12.9 24.1 0.00 0.00 0.00 29 1007.4
20260503184522 20 313 16.1 27.4 0.00 0.00 0.00 30 1007.4
20260503184023 20 317 9.7 27.4 0.00 0.00 0.00 30 1007.5
20260503183526 20 336 12.9 22.5 0.00 0.00 0.00 32 1007.6
20260503183029 19 327 9.7 29.0 0.00 0.00 0.00 37 1007.5
20260503182530 20 336 12.9 29.0 0.00 0.00 0.00 35 1007.6
20260503182032 20 309 11.3 19.3 0.00 0.00 0.00 35 1007.6
20260503181532 19 333 6.4 19.3 0.00 0.00 0.00 36 1007.5
20260503181033 19 317 11.3 27.4 0.00 0.00 0.00 36 1007.6
20260503180533 19 300 16.1 27.4 0.00 0.00 0.00 36 1007.7
20260503180033 19 9 9.7 22.5 0.00 0.00 0.00 39 1007.7
20260503175515 19 38 16.1 22.5 0.00 0.00 0.00 37 1007.7
20260503175018 19 311 9.7 25.7 0.00 0.00 0.00 36 1007.7
20260503174518 19 49 9.7 25.7 0.00 0.00 0.00 38 1007.8
20260503174020 19 19 11.3 20.9 0.00 0.00 0.00 36 1007.8
20260503173523 18 334 11.3 24.1 0.00 0.00 0.00 36 1007.8
20260503173025 19 335 12.9 25.7 0.00 0.00 0.00 37 1007.9
20260503172526 18 314 12.9 25.7 0.00 0.00 0.00 38 1007.9
20260503172028 18 40 11.3 24.1 0.00 0.00 0.00 39 1007.9
20260503171530 18 298 12.9 24.1 0.00 0.00 0.00 37 1008.0
20260503171032 18 303 12.9 24.1 0.00 0.00 0.00 39 1007.8
20260503170533 18 40 11.3 20.9 0.00 0.00 0.00 41 1007.9
20260503150517 16 311 14.5 24.1 0.00 0.00 0.00 45 1007.6
20260503131034 12 318 8.0 22.5 0.00 0.00 0.00 56 1006.5
20260503130537 12 323 9.7 22.5 0.00 0.00 0.00 56 1006.4
20260503110540 10 208 1.6 4.8 0.00 0.00 0.00 54 1005.1